Temp
75 74 74 75 74 75 74 74 74 71 72 76 75 78 77 76 78 81 79 75 72 71 70 70 71 72 73 74 74 75 75 75 75 75 75 76 76 78
76 74 73 76 76 76 76 74 72 72 72 75 76 77 78 80 78 79 79 74 72 71 70 69 70 71 71 72 72 73 73 73 73 73 73 73 73 75
75 74 74 75 75 76 75 75 75 71 70 75 74 76 77 77 80 80 79 79 77 70 70 69 69 69 69 70 70 71 71 71 71 72 73 73 73 73
74 74 74 77 74 74 75 74 74 73 73 71 74 77 76 78 78 76 80 83 80 75 70 69 68 67 67 67 67 67 67 67 68 69 71 72 72 72
75 74 75 74 73 75 73 74 73 75 73 72 74 75 75 76 76 76 76 77 79 75 72 70 68 67 66 65 64 63 62 62 64 65 66 68 70 71
75 75 75 73 73 74 74 73 72 73 72 72 73 73 73 76 74 73 73 73 76 80 75 71 70 70 69 67 65 64 61 59 59 60 62 63 65 67
75 75 75 75 73 73 75 75 72 71 71 71 71 72 72 72 71 74 71 73 75 74 73 73 73 72 72 69 70 69 64 61 60 59 59 60 61 63
73 74 75 73 73 70 69 70 72 72 71 71 72 71 73 72 73 72 72 70 70 72 70 72 70 71 70 68 64 64 62 62 61 60 59 59 60 61
74 74 75 78 73 76 71 68 68 67 71 75 73 74 74 75 73 72 71 70 69 71 68 69 68 69 70 70 63 62 61 60 60 60 60 59 58 58
75 75 75 76 76 76 75 75 75 75 73 71 74 76 76 76 75 75 73 71 69 70 68 67 70 69 70 69 63 62 60 58 58 58 58 58 56 56
74 75 75 75 70 66 74 74 74 75 68 65 66 66 65 64 70 71 70 69 69 68 68 69 69 68 69 69 69 61 59 57 56 56 57 57 55 54
72 72 66 72 65 62 71 72 71 73 74 75 73 68 65 68 63 72 73 70 67 66 69 67 67 68 66 68 68 67 65 58 56 55 55 55 54 60
70 73 74 62 60 58 60 72 72 75 71 74 75 71 69 70 70 70 70 71 68 67 70 69 66 66 65 64 65 68 64 62 61 61 56 52 52 55
67 71 72 61 58 57 59 61 60 62 72 70 69 68 67 68 69 68 68 68 69 69 69 68 66 65 63 62 62 65 64 63 61 60 60 56 53 53
68 66 60 56 56 57 57 58 58 65 68 67 67 67 67 67 67 67 67 66 66 67 69 67 67 66 63 61 61 61 59 64 61 60 60 58 59 60
62 64 62 62 60 62 63 61 65 67 67 67 66 66 65 63 65 67 67 67 66 67 67 67 65 64 63 63 61 59 61 59 64 61 59 58 58 59
62 64 63 65 64 66 66 65 63 63 62 63 62 63 61 61 62 65 66 66 64 63 65 63 62 63 64 62 59 60 59 59 61 60 59 57 58 58
63 64 64 65 65 66 66 66 64 63 63 62 61 61 60 62 65 64 66 64 63 64 61 61 60 59 60 63 62 59 59 59 59 59 58 58 62 62
65 66 66 66 66 65 65 66 66 66 65 64 64 64 64 65 63 65 65 64 64 64 61 60 59 58 57 56 61 58 59 59 58 57 58 57 58 62
62 65 65 67 67 66 65 63 65 65 63 64 63 65 65 65 64 64 66 65 65 63 60 59 58 58 58 58 60 61 52 61 58 58 57 57 58 57
62 63 66 66 64 65 66 67 66 65 65 65 65 65 65 66 65 66 67 58 61 63 60 59 61 60 61 60 57 59 60 51 57 59 59 57 55 55
65 65 66 66 66 65 66 67 67 66 66 66 67 66 66 66 66 66 66 67 65 67 63 65 61 60 59 59 60 59 58 59 56 55 56 57 56 54
66 67 68 67 67 66 66 65 66 68 68 67 67 67 67 66 67 67 67 67 67 66 61 59 58 59 60 60 58 60 59 59 58 57 58 56 56 56
MSLP
1018.57 1018.78 1018.92 1018.82 1018.86 1018.86 1018.86 1018.74 1018.65 1018.87 1018.53 1017.99 1017.82 1017.33 1017.33 1017.22 1017.08 1016.99 1016.89 1016.92 1016.83 1016.88 1016.85 1016.90 1017.01 1017.12 1017.31 1017.53 1017.72 1017.96 1018.17 1018.33 1018.54 1018.70 1018.83 1019.01 1018.95 1019.03
1018.05 1018.28 1018.47 1018.51 1018.53 1018.57 1018.65 1018.71 1018.76 1018.75 1018.59 1018.09 1017.76 1017.58 1017.20 1017.14 1017.00 1016.92 1016.80 1016.78 1016.66 1016.62 1016.56 1016.51 1016.56 1016.61 1016.66 1016.83 1016.99 1017.12 1017.29 1017.51 1017.78 1018.02 1018.20 1018.31 1018.41 1018.57
1017.61 1017.76 1017.87 1018.06 1018.16 1018.24 1018.39 1018.48 1018.41 1018.54 1018.52 1018.03 1017.95 1017.53 1017.26 1017.01 1016.77 1016.70 1016.68 1016.59 1016.39 1016.39 1016.38 1016.39 1016.37 1016.34 1016.30 1016.32 1016.40 1016.40 1016.55 1016.65 1016.81 1017.00 1017.25 1017.49 1017.75 1017.99
1017.06 1017.35 1017.35 1017.45 1017.71 1017.91 1018.08 1018.17 1018.18 1018.19 1018.21 1017.94 1017.75 1017.57 1017.46 1017.05 1016.82 1016.80 1016.55 1016.43 1016.40 1016.36 1016.42 1016.36 1016.24 1016.13 1016.09 1016.08 1016.07 1016.08 1016.09 1016.12 1016.16 1016.16 1016.32 1016.47 1016.68 1017.06
1016.31 1016.59 1016.66 1016.97 1017.09 1017.38 1017.68 1017.88 1018.01 1017.96 1017.93 1018.00 1017.79 1017.77 1017.57 1017.28 1016.99 1016.73 1016.66 1016.41 1016.29 1016.28 1016.18 1016.14 1016.11 1016.01 1015.94 1015.80 1015.62 1015.50 1015.46 1015.57 1015.57 1015.56 1015.62 1015.66 1015.95 1015.98
1015.54 1015.77 1015.94 1016.27 1016.51 1016.81 1017.14 1017.29 1017.58 1017.55 1017.60 1017.71 1017.78 1017.69 1017.55 1017.21 1017.21 1016.99 1016.70 1016.56 1016.44 1016.11 1016.02 1016.06 1015.90 1015.75 1015.55 1015.34 1015.18 1014.95 1014.81 1014.79 1014.84 1014.93 1014.94 1015.08 1015.27 1015.62
1014.67 1014.97 1015.15 1015.32 1015.64 1015.93 1016.35 1016.55 1017.02 1017.19 1017.27 1017.24 1017.26 1017.25 1017.11 1016.96 1016.83 1016.53 1016.47 1016.29 1016.20 1016.20 1016.12 1015.98 1015.78 1015.53 1015.28 1015.07 1014.90 1014.76 1014.66 1014.52 1014.42 1014.32 1014.31 1014.42 1014.75 1014.92
1013.88 1014.09 1014.29 1014.52 1014.83 1015.15 1015.44 1015.67 1016.01 1016.33 1016.52 1016.59 1016.39 1016.30 1016.20 1016.37 1016.24 1016.28 1016.20 1016.17 1016.03 1016.10 1016.27 1015.98 1015.88 1015.57 1015.31 1015.23 1015.27 1015.06 1014.82 1014.46 1014.15 1014.02 1014.00 1014.03 1014.12 1014.43
1013.04 1013.30 1013.53 1013.70 1013.94 1014.30 1014.53 1014.68 1014.90 1015.11 1015.23 1015.36 1015.49 1015.32 1015.29 1015.34 1015.56 1015.69 1015.85 1015.92 1015.83 1015.99 1016.21 1015.83 1015.75 1015.33 1014.96 1014.88 1015.04 1015.04 1014.93 1014.47 1013.91 1013.53 1013.55 1013.57 1013.65 1013.90
1012.45 1012.69 1012.89 1013.11 1013.31 1013.59 1013.97 1014.08 1014.15 1014.17 1014.19 1014.41 1014.39 1014.35 1014.51 1014.62 1014.76 1014.98 1015.23 1015.44 1015.59 1015.70 1016.07 1015.85 1015.58 1015.10 1014.74 1014.69 1014.96 1015.01 1015.11 1014.77 1014.16 1013.54 1013.19 1013.13 1013.35 1013.67
1011.84 1012.09 1012.34 1012.51 1012.55 1012.78 1013.36 1013.44 1013.40 1013.25 1013.19 1013.41 1013.44 1013.57 1013.96 1014.17 1014.11 1014.61 1014.73 1015.05 1015.04 1015.22 1015.64 1015.69 1015.36 1015.15 1014.80 1014.59 1014.68 1014.91 1014.91 1014.83 1014.48 1013.92 1013.42 1013.08 1013.00 1013.15
1010.99 1011.22 1011.40 1011.59 1011.83 1012.12 1012.72 1012.81 1012.83 1012.49 1012.81 1013.05 1013.39 1013.37 1013.46 1013.73 1014.10 1013.91 1014.10 1014.36 1014.67 1014.86 1015.03 1015.62 1015.38 1015.20 1014.81 1014.58 1014.52 1014.48 1014.65 1014.68 1014.56 1014.12 1013.66 1013.31 1013.21 1013.19
1009.84 1010.09 1010.37 1010.71 1011.30 1011.69 1012.05 1012.16 1012.04 1011.98 1012.12 1012.20 1012.33 1012.71 1012.80 1013.08 1013.56 1013.71 1013.84 1013.90 1014.12 1014.27 1014.47 1014.99 1015.17 1015.06 1014.91 1014.59 1014.37 1014.19 1014.53 1014.46 1014.49 1014.17 1013.61 1013.30 1013.13 1013.10
1008.69 1009.10 1009.80 1010.26 1010.73 1011.12 1011.58 1011.66 1011.61 1011.87 1012.05 1012.13 1012.20 1012.23 1012.45 1012.55 1013.02 1013.28 1013.47 1013.67 1013.59 1013.78 1014.12 1014.54 1014.76 1014.73 1014.56 1014.48 1014.36 1014.14 1014.25 1014.38 1014.44 1014.36 1013.68 1013.30 1013.18 1013.07
1008.95 1009.19 1009.74 1010.21 1010.70 1010.81 1010.95 1011.01 1011.19 1011.54 1011.43 1011.68 1012.05 1012.11 1012.13 1012.21 1012.39 1012.90 1013.16 1013.43 1013.45 1013.50 1013.78 1014.12 1014.40 1014.32 1014.34 1014.30 1014.24 1014.08 1014.18 1014.09 1014.08 1014.18 1013.81 1013.44 1013.19 1012.94
1008.94 1009.44 1009.63 1009.62 1009.91 1010.18 1010.46 1010.67 1010.95 1011.04 1011.05 1011.08 1011.28 1011.81 1012.23 1012.32 1012.17 1012.38 1012.77 1012.98 1013.18 1013.28 1013.50 1013.83 1013.94 1014.09 1013.94 1013.89 1014.06 1013.94 1013.97 1014.12 1013.78 1013.96 1013.78 1013.42 1013.03 1012.97
1009.33 1009.59 1009.54 1009.44 1009.41 1009.58 1009.73 1009.89 1010.15 1010.61 1010.74 1010.88 1011.35 1011.91 1012.11 1012.30 1012.27 1012.34 1012.43 1012.71 1012.93 1013.10 1013.24 1013.65 1013.92 1013.94 1013.73 1013.71 1013.73 1013.68 1013.70 1013.72 1013.68 1013.65 1013.50 1013.25 1013.08 1013.11
1008.76 1008.87 1008.79 1008.74 1008.78 1008.97 1009.15 1009.32 1009.66 1009.99 1010.19 1010.60 1010.83 1011.00 1011.41 1012.08 1012.06 1012.16 1012.33 1012.64 1012.66 1012.80 1013.04 1013.26 1013.66 1014.06 1013.80 1013.13 1013.24 1013.49 1013.48 1013.40 1013.44 1013.43 1013.26 1012.94 1012.66 1012.80
1008.43 1008.05 1007.91 1008.11 1008.32 1008.57 1008.70 1009.04 1009.11 1008.98 1009.66 1010.10 1010.55 1010.37 1010.63 1010.75 1011.35 1011.79 1011.79 1012.09 1012.31 1012.49 1012.65 1012.87 1013.30 1013.50 1013.52 1013.13 1012.93 1013.08 1013.15 1012.98 1013.07 1013.13 1013.05 1012.81 1012.47 1012.44
1008.21 1007.64 1007.56 1007.81 1007.70 1007.89 1007.94 1008.05 1008.35 1009.03 1009.07 1009.43 1010.01 1010.23 1009.97 1009.99 1010.62 1010.68 1011.02 1011.28 1011.72 1012.11 1012.32 1012.51 1012.80 1012.77 1012.80 1012.72 1012.61 1012.60 1012.70 1012.70 1012.68 1012.59 1012.72 1012.70 1012.39 1012.31
1007.11 1007.21 1006.97 1007.30 1007.59 1007.50 1007.37 1007.37 1007.54 1007.97 1008.70 1008.43 1008.35 1009.36 1010.12 1009.56 1009.63 1009.86 1010.34 1010.55 1010.90 1011.39 1011.60 1011.83 1011.76 1012.03 1012.31 1012.53 1012.68 1012.33 1012.24 1012.34 1012.22 1012.27 1012.27 1012.48 1012.19 1012.06
1005.93 1005.98 1006.13 1006.41 1006.60 1006.65 1006.64 1006.80 1006.59 1006.90 1007.33 1007.69 1007.65 1007.71 1008.45 1009.01 1008.48 1009.36 1009.55 1009.68 1010.10 1010.51 1010.85 1010.88 1011.40 1011.90 1012.04 1012.11 1011.92 1011.89 1011.98 1012.06 1012.17 1012.15 1012.06 1012.15 1012.06 1011.70
1005.29 1005.24 1005.60 1005.75 1005.97 1005.65 1005.52 1005.58 1005.75 1005.74 1005.97 1006.45 1006.68 1006.56 1007.05 1007.66 1007.74 1007.94 1008.88 1009.07 1009.13 1009.61 1010.11 1010.71 1011.24 1011.50 1011.47 1011.50 1011.57 1011.56 1011.49 1011.63 1012.04 1011.95 1011.74 1011.59 1011.57 1011.39
Wind_Speed
5 4 3 3 3 3 2 2 2 1 2 2 2 2 2 2 3 3 5 7 7 7 8 10 11 10 11 11 13 12 12 12 12 13 13 13 14 14
5 5 4 3 4 4 3 2 2 2 2 3 2 2 2 4 4 5 5 6 8 9 9 9 10 10 11 13 13 14 15 15 14 14 14 13 13 13
5 5 5 4 4 4 4 3 3 3 3 2 2 2 3 4 5 4 5 6 5 7 8 8 9 10 11 13 14 15 14 15 16 16 16 14 13 12
8 6 7 5 6 5 4 5 4 4 3 4 1 2 4 2 3 4 4 4 4 6 7 8 8 9 10 10 11 11 12 13 14 15 16 17 15 14
9 8 8 6 5 5 5 5 4 4 3 2 2 1 2 1 2 2 3 4 3 4 7 6 6 6 8 10 11 12 13 13 15 14 15 15 16 16
10 9 8 7 8 6 6 6 5 5 4 4 3 3 3 1 2 3 4 1 3 4 3 1 4 8 9 10 10 10 12 13 14 14 14 13 13 13
9 8 9 10 12 9 6 6 5 4 3 5 4 3 3 3 4 2 3 3 3 3 2 2 4 5 5 7 9 10 10 11 12 14 14 13 13 12
10 10 10 13 12 13 13 10 8 6 6 4 4 5 5 4 3 3 3 2 3 2 1 4 2 4 4 4 9 10 9 9 11 12 12 12 13 14
10 9 8 8 10 8 11 13 11 13 13 7 9 7 6 5 3 3 5 4 4 1 1 3 1 3 2 2 4 7 10 10 10 10 11 11 12 12
9 9 9 9 9 9 8 8 8 8 9 8 10 9 8 5 6 4 3 3 2 3 3 3 1 3 3 2 2 6 9 10 10 10 7 8 9 10
8 9 8 9 10 13 9 9 9 10 8 12 10 8 8 8 7 5 5 3 4 2 4 3 2 3 3 2 1 2 6 6 7 7 7 6 7 9
8 9 14 12 11 12 10 9 9 10 7 7 6 6 7 6 9 9 4 6 3 3 3 4 2 2 3 0 2 2 4 4 8 6 6 6 4 3
8 8 8 13 13 11 13 8 10 7 9 8 7 4 4 5 5 6 6 6 5 6 4 3 3 2 2 3 1 2 2 5 5 6 5 5 5 4
9 6 5 10 10 11 9 13 13 6 4 4 5 6 6 6 5 5 6 7 6 6 3 6 3 4 2 2 4 1 3 5 4 6 3 4 2 4
5 5 5 1 4 5 8 10 6 6 6 6 7 6 5 3 3 3 4 4 4 5 5 6 6 4 3 3 2 2 2 2 2 4 3 2 2 1
4 2 4 7 8 5 3 4 3 4 5 5 5 3 2 3 5 5 4 5 4 4 4 4 4 5 3 4 3 3 3 3 2 3 3 2 1 1
7 4 4 4 4 4 3 4 4 3 4 4 3 3 2 3 3 4 4 4 4 3 4 3 3 4 4 4 3 4 3 3 3 3 1 1 0 1
3 5 4 4 4 4 4 4 4 6 6 5 5 5 5 6 6 4 4 5 5 4 3 3 3 2 2 4 9 4 3 2 2 3 2 1 1 1
4 5 4 5 5 4 6 6 7 6 6 6 7 7 8 7 7 6 6 7 4 5 4 3 3 3 2 3 1 9 4 2 1 2 3 2 2 2
5 5 5 6 6 7 7 7 7 5 6 7 7 8 8 8 7 8 8 8 7 5 3 3 4 5 4 3 2 1 9 4 3 2 2 2 2 3
6 6 6 6 7 7 7 7 7 6 7 6 7 7 8 8 8 8 9 9 9 5 6 6 8 7 3 2 2 3 2 9 5 3 2 3 1 1
6 7 7 8 8 8 7 7 6 7 7 8 8 8 9 9 9 10 9 10 9 8 7 4 4 5 5 6 6 4 1 1 5 6 7 6 2 2
8 8 8 7 7 8 8 7 8 8 8 9 9 9 9 10 10 10 10 10 9 8 6 5 4 4 5 5 6 5 4 3 2 4 5 10 12 10
Wind_Direction
216 225 232 255 230 229 216 214 152 252 285 306 300 314 314 309 268 282 268 282 272 230 221 219 225 222 226 231 232 234 237 235 235 234 231 233 234 240
216 212 218 243 234 225 223 208 191 186 234 216 270 284 282 269 279 287 281 282 264 261 243 235 233 229 230 235 234 227 224 228 229 232 232 231 236 236
226 212 227 211 234 230 224 222 214 182 213 283 237 254 262 254 273 278 286 291 290 271 270 268 261 257 249 243 239 235 228 227 225 225 227 227 227 228
216 213 231 225 219 215 223 233 233 208 201 226 265 274 252 295 297 305 299 305 306 337 329 304 291 284 274 265 249 243 236 238 232 229 227 224 221 219
211 207 219 211 221 222 225 237 242 244 215 231 266 294 301 297 301 282 286 292 268 290 302 320 320 289 276 266 252 242 241 240 239 233 231 227 221 212
211 204 210 206 222 217 222 222 235 238 215 223 249 260 253 278 264 274 285 257 287 296 300 332 322 316 304 289 267 254 242 239 241 233 229 231 227 221
212 206 208 204 213 212 207 224 209 233 232 226 235 230 243 253 237 238 253 274 267 252 299 296 318 316 318 313 310 289 264 252 245 239 229 227 231 227
213 210 210 201 217 222 220 218 191 207 219 217 231 237 252 235 215 232 249 264 285 140 293 295 281 312 341 356 339 340 331 304 263 245 234 237 229 227
215 215 217 220 205 221 224 225 226 216 224 227 237 237 253 226 198 238 233 237 240 185 285 285 276 291 280 312 348 346 339 329 314 269 240 227 223 222
211 211 207 211 211 212 221 232 232 231 223 215 225 241 233 202 203 231 236 235 244 244 195 258 271 274 298 301 289 354 344 339 341 337 282 235 229 227
217 222 218 224 216 205 218 233 239 242 214 208 215 223 219 220 202 175 215 225 263 231 196 254 215 280 290 311 60 17 326 323 336 343 343 294 240 217
206 214 213 221 213 194 206 220 237 244 219 215 222 229 208 210 193 213 209 227 221 270 166 225 214 291 315 146 296 334 333 322 325 338 358 345 271 221
194 201 204 200 226 213 212 223 235 235 218 223 235 223 193 191 203 214 218 220 215 232 164 208 211 215 219 288 274 312 346 324 323 322 328 15 343 250
195 180 182 191 211 222 203 227 238 232 238 224 228 224 218 205 216 226 230 229 228 239 167 200 232 222 211 265 279 352 342 316 308 308 322 324 342 325
136 141 129 187 287 275 252 246 203 215 219 216 232 228 217 192 188 190 197 204 210 218 215 210 229 218 205 220 253 258 334 246 292 306 321 331 336 352
113 151 210 185 196 214 209 212 219 212 206 218 209 208 204 222 194 179 191 186 200 196 202 220 213 203 219 233 246 269 275 284 291 299 313 306 322 322
161 185 196 195 202 200 205 200 179 175 190 175 177 207 222 202 197 185 190 183 204 189 205 197 220 245 240 235 260 235 264 257 268 281 267 299 15 290
166 200 212 207 208 223 222 209 188 198 200 185 189 185 187 208 205 191 200 207 211 215 198 170 172 233 258 228 217 257 262 245 256 259 225 252 297 50
235 212 205 204 211 224 235 237 237 211 198 212 221 204 200 195 184 208 205 215 213 228 201 152 181 204 234 257 171 216 238 225 203 251 250 222 260 320
224 215 218 221 212 210 208 212 220 229 203 206 218 220 205 191 194 205 207 213 223 222 198 180 204 196 202 216 234 203 209 235 222 237 246 238 255 287
208 223 223 228 232 231 229 222 215 215 223 209 199 208 222 203 203 207 213 215 212 204 210 209 222 185 164 124 226 235 199 217 239 242 218 246 221 192
232 230 222 224 225 228 232 235 220 218 218 223 221 204 207 212 207 211 212 215 213 222 220 210 146 165 186 211 242 230 222 228 221 241 247 251 220 208
239 230 232 229 240 231 227 224 228 227 221 227 227 210 205 210 212 206 216 216 216 218 189 182 176 191 216 223 234 244 221 236 275 282 263 230 242 243